Flag for Maldives Weather past 2 weeks in Male, Maldives

Now
81 °F

Passing clouds.


Feels Like: 86 °F
Forecast: 75 / 86 °F
Wind: 1 mph from North

Location: Male Airport

Current Time: Jul 29, 2015 at 5:41:08 AM

Latest Report: Jul 29, 2015 at 5:00 AM


Visibility: N/A

Pressure: 29.86 "Hg

Humidity: 84%

Dew point: 75 °F

Location of MaleLocation

Historic Weather in Male — Graph

°F

Male temperature yesterday

Maximum temperature yesterday: 88 °F (at 9:00 AM)
Minimum temperature yesterday: 81 °F (at 4:00 AM)
Average temperature yesterday: 85 °F

Past Weeks' High & Low Weather Summary

 TemperatureHumidityPressure
High90 °F (Jul 15, 8:00 PM)100% (Jul 15, 4:00 PM)29.95 "Hg (Jul 15, 4:00 PM)
Low66 °F (Jul 15, 4:00 PM)66% (Jul 20, 10:00 AM)29.74 "Hg (Jul 16, 2:00 PM)
Average84 °F78%29.84 "Hg
* Reported Jul 14 4:00 AM — Jul 29 4:00 AM, Male, Weather by CustomWeather, © 2015

Note: Actual official high and low records may vary slightly from our data, if they occured in-between our weather recording intervals... More about our weather records

Advertising

Male weather history for previous 24 hours

 ConditionsComfort  
Time TempWeatherWind HumidityBarometerVisibility
4:00 AM
Wed, Jul 29
81 °FPassing clouds.No wind84%29.86 "HgN/A
3:00 AM81 °FPassing clouds.No wind84%29.89 "HgN/A
2:00 AM82 °FPassing clouds.No wind79%29.89 "HgN/A
1:00 AM82 °FPassing clouds.2 mph79%29.92 "HgN/A
12:00 AM82 °FPassing clouds.1 mph79%29.92 "HgN/A
11:00 PM
Tue, Jul 28
82 °FPassing clouds.2 mph79%29.95 "HgN/A
10:00 PM82 °FPassing clouds.3 mph79%29.95 "HgN/A
9:00 PM84 °FPassing clouds.2 mph74%29.95 "HgN/A
8:00 PM84 °FPassing clouds.5 mph74%29.89 "HgN/A
7:00 PM84 °FPassing clouds.2 mph74%29.89 "HgN/A
6:00 PM86 °FPassing clouds.6 mph75%29.86 "HgN/A
5:00 PM88 °FPartly sunny.3 mph66%29.86 "HgN/A
4:00 PM88 °FPartly sunny.3 mph75%29.83 "HgN/A
3:00 PM88 °FPartly sunny.5 mph70%29.83 "HgN/A
2:00 PM88 °FPartly sunny.5 mph66%29.86 "HgN/A
1:00 PM88 °FPartly sunny.5 mph70%29.86 "HgN/A
12:00 PM88 °FPartly sunny.5 mph70%29.89 "HgN/A
11:00 AM88 °FPartly sunny.5 mph70%29.92 "HgN/A
10:00 AM88 °FPartly sunny.5 mph66%29.92 "HgN/A
9:00 AM88 °FPartly sunny.5 mph70%29.92 "HgN/A
8:00 AM86 °FPartly sunny.5 mph70%29.92 "HgN/A
7:00 AM84 °FPartly sunny.6 mph74%29.89 "HgN/A
6:00 AM81 °FPassing clouds.3 mph84%29.89 "HgN/A
5:00 AM81 °FPassing clouds.5 mph89%29.86 "HgN/A
Weather by CustomWeather, © 2015

See weather overviewHow to use our weather pages